{"data":{"norad_id":61255,"epoch":"2026-09-21T00:23:14.692992Z","epoch_age_seconds":147506,"freshness":"FRESH","line1":"1 61255U 24175N   26264.01614228 -.00000562  00000+0  21993-6 0  9995","line2":"2 61255  53.1604 173.4535 0001154  67.1366 292.9774 15.69704569114040","mean_motion":15.69704569,"eccentricity":0.0001154,"inclination_deg":53.1604,"raan_deg":173.4535,"arg_perigee_deg":67.1366,"mean_anomaly_deg":292.9774,"bstar":2.1993e-7,"rev_number":11404,"period_min":91.737007615221,"perigee_km":358.96474063743,"apogee_km":360.519843178,"semimajor_km":6737.8792919077,"source":"CELESTRAK","updated_at":"2026-09-22T09:00:49.350167Z"}}